Date,TemperatureHighF,TemperatureAvgF,TemperatureLowF,DewpointHighF,DewpointAvgF,DewpointLowF,HumidityHigh,HumidityAvg,HumidityLow,PressureMaxIn,PressureMinIn,WindSpeedMaxMPH,WindSpeedAvgMPH,GustSpeedMaxMPH,PrecipitationSumIn
2014-2-1,22,14,8,14,7,0,80,73,65,30.11,29.93,16,5,0,0.00
2014-2-2,18,10,0,5,-1,-8,73,61,46,30.31,30.10,13,6,0,0.00
2014-2-3,21,8,-7,4,-5,-15,71,56,43,30.35,30.29,18,6,0,0.00
2014-2-4,20,14,2,13,4,-5,73,63,54,30.40,30.18,13,5,0,0.00
2014-2-5,20,14,6,14,5,-3,83,67,56,30.37,30.13,26,12,0,0.00
2014-2-6,7,1,-5,-3,-10,-14,69,58,47,30.37,30.21,26,11,0,0.00
2014-2-7,13,4,-4,-5,-9,-14,66,55,43,30.24,30.16,29,14,0,0.00
2014-2-8,17,9,-2,10,1,-10,81,71,57,30.22,30.06,11,4,0,0.00
2014-2-9,20,11,1,7,1,-14,80,64,48,30.23,30.04,18,8,0,0.00
2014-2-10,9,1,-6,-9,-14,-18,54,49,43,30.36,30.23,19,8,0,0.00
2014-2-11,21,8,-9,1,-10,-18,65,45,36,30.43,30.32,14,4,0,0.00
2014-2-12,19,15,8,13,10,-3,85,79,60,30.16,29.95,13,4,0,0.00
2014-2-13,28,24,16,22,15,7,89,69,46,29.94,29.42,30,12,0,0.00
2014-2-14,25,17,9,14,6,-2,76,63,53,29.91,29.51,26,11,0,0.00
2014-2-15,25,14,-2,13,2,-9,85,60,45,30.02,29.89,14,6,0,0.00
2014-2-16,24,17,12,13,8,3,86,70,53,30.25,29.89,16,7,0,0.00
2014-2-17,25,23,14,23,19,9,90,84,72,30.22,29.64,34,12,0,0.00
2014-2-18,47,34,20,29,24,18,90,70,47,29.84,29.54,24,10,0,0.00
2014-2-19,47,38,30,30,25,21,80,61,40,29.90,29.60,16,9,0,0.00
2014-2-20,54,39,34,54,35,24,99,88,58,29.86,29.03,45,19,0,0.00
2014-2-21,37,25,19,31,16,9,82,66,55,29.68,29.07,51,31,0,0.00
2014-2-22,29,22,14,13,8,2,63,57,46,30.02,29.68,34,19,0,0.00
2014-2-23,25,16,8,8,2,-2,64,55,45,30.13,30.01,30,14,0,0.00
2014-2-24,23,14,7,6,2,-2,69,57,47,30.18,30.12,27,12,0,0.00
2014-2-25,15,10,2,2,-4,-13,69,52,40,30.18,30.05,24,14,0,0.00
2014-2-26,13,5,-4,7,-10,-17,79,50,39,30.16,29.52,35,18,0,0.00
2014-2-27,11,2,-5,1,-17,-23,69,39,26,30.14,29.55,45,11,0,0.00
2014-2-28,22,11,-7,14,-5,-22,81,49,38,30.14,29.90,24,7,0,0.00